SCP
0 0 0 0 0 0 0 0 0 0 0 0 0 0 0 0 0 0 0 0 0 0 0 0 0 0 0 0 0 0 0 0 0 0 0 0 0 0 0 0 0 0 0
0 0 0 0 0 0 0 0 0 0 0 0 0 0 0 0 0 0 0 0 0 0 0 0 0 0 0 0 0 0 0 0 0 0 0 0 0 0 0 0 0 0 0
0 0 0 0 0 0 0 0 0 0 0 0 0 0 0 0 0 0 0 0 0 0 0 0 0 0 0 0 0 0 0 0 0 0 0 0 0 0 0 0 0 0 0
0 0 0 0 0 0 0 0 0 0 0 0 0 0 0 0 0 0 0 0 0 0 0 0 0 0 0 0 0 0 0 0 0 0 0 0 0 0 0 0 0 0 0
0 0 0 0 0 0 0 0 0 0 0 0 0 0 0 0 0 0 0 0 0 0 0 0 0 0 0 0 0 0 0 0 0 0 0 0 0 0 0 0 0 0 0
0 0 0 0 0 0 0 0 0 0 0 0 0 0 0 0 0 0 0 0 0 0 0 0 0 0 0 0 0 -0 0 0 0 0 0 0 0 0 0 0 0 0 0
0 0 0 0 0 0 0 0 0 0 0 0 0 0 0 0 0 0 0 0 0 0 0 0 0 0 0 0 0 0 0 0 0 0 0 0 0 0 0 0 0 0 0
0 0 0 0 0 0 0 0 0 0 0 0 0 0 0 0 0 0 0 0 0 0 0 0 0 0 0 0 0 0 0 0 0 0 0 0 0 0 0 0 0 0 0
0 0 0 0 0 0 0 0 0 0 0 0 0 0 0 0 0 0 0 0 0 0 0 0 0 0 0 0 0 0 0 0 0 0 0 0 0 0 0 0 0 0 0
0 0 0 0 0 0 0 0 0 0 0 0 0 0 0 0 0 0 0 0 0 0 0 0 0 0 0 0 0 0 0 0 0 0 0 0 0 0 0 0 0 0 0
0 0 0 0 0 0 0 0 0 0 0 0 0 0 0 0 0 0 0 0 0 0 0 0 0 0 0 0 0 0 0 0 0 0 0 0 0 0 0 0 0 0 -0
0 0 0 0 0 0 0 0 0 0 0 0 0 0 0 0 0 0 0 0 0 0 0 0 0 0 0 0 0 0 0 0 0 0 0 0 0 0 0 0 0 0 -0
0 0 0 0 0 0 0 0 0 0 0 0 0 0 0 0 0 0 0 0 0 0 0 0 0 0 0 0 0 0 0 0 0 0 0 0 0 0 0 0 0 0 0
0 0 0 0 0 0 0 0 0 0 0 0 0 0 0 0 0 0 0 0 0 0 0 0 0 0 0 0 0 0 0 0 0 0 0 0 0 0 0 0 0 0 0
0 0 0 0 0 0 0 0 0 0 0 0 0 0 0 0 0 0 0 0 0 0 0 0 0 0 0 0 0 0 0 0 0 0 0 0 0 0 0 0 0 0 0
0 0 0 0 0 0 0 0 0 0 0 0 0 0 0 0 0 0 0 0 0 0 0 0 0 0 0 0 0 0 0 0 0 0 0 0 0 0 0 0 0 0 0
0 0 0 0 0 0 0 0 0 0 0 0 0 0 0 0 0 0 0 0 0 0 0 0 0 0 0 0 0 0 0 0 0 0 0 0 0 0 0 0 0 0 0
0 0 0 0 0 0 0 0 0 0 0 0 0 0 0 0 0 0 0 0 0 0 0 0 0 0 0 0 0 0 0 0 0 0 0 0 0 0 0 0 0 0 0
0 0 0 0 0 0 0 0 0 0 0 0 0 0 0 0 0 0 0 0 0 0 0 0 0 0 0 0 0 0 0 0 0 0 0 0 0 0 0 0 0 0 0
0 0 0 0 0 0 0 0 0 0 0 0 0 0 0 0 0 0 0 0 0 0 0 0 0 0 0 0 0 0 0 0 0 0 0 0 0 0 0 0 0 0 0
0 0 0 0 0 0 0 0 0 0 0 0 0 0 0 0 0 0 0 0 0 0 0 0 0 0 0 0 0 0 0 0 0 0 0 0 0 0 0 0 0 0 0
0 0 0 0 0 0 0 0 0 0 0 0 0 0 0 0 0 0 0 0 0 0 0 0 0 0 0 0 0 0 0 0 0 0 0 0 0 0 0 0 0 0 0
0 0 0 0 0 0 0 0 0 0 0 0 0 0 0 0 0 0 0 0 0 0 0 0 0 0 0 0 0 0 0 0 0 0 0 0 0 0 0 0 0 0 0
0 0 0 0 0 0 0 0 0 0 0 0 0 0 0 0 0 0 0 0 0 0 0 0 0 0 0 0 0 0 0 0 0 0 0 0 0 0 0 0 0 0 0
0 0 0 0 0 0 0 0 0 0 0 0 0 0 0 0 0 0 0 0 0 0 0 0 0 0 0 0 0 0 0 0 0 0 0 0 0 0 0 0 0 0 0
0 0 0 0 0 0 0 0 0 0 0 0 0 0 0 0 0 0 0 0 0 0 0 0 0 0 0 0 0 0 0 0 0 0 0 0 0 0 0 0 0 0 0
Wind_Speed_500mb
43 42 36 35 30 30 31 30 30 25 24 23 20 21 21 14 16 19 21 20 16 15 17 15 14 14 11 7 4 8 10 10 8 6 4 4 6 7 7 9 10 10 9
48 48 41 37 35 31 26 28 27 28 24 21 20 20 19 14 13 14 17 21 22 21 19 17 17 14 11 14 17 14 12 15 12 10 7 4 1 5 3 0 3 5 6
51 52 48 45 41 39 36 35 33 30 25 21 17 17 20 19 16 15 15 19 21 23 24 24 21 19 18 16 18 19 20 14 16 15 12 9 5 2 6 5 6 8 7
53 55 53 50 48 45 42 40 35 32 27 24 21 20 22 25 24 20 19 23 30 30 31 29 26 24 22 18 16 15 12 14 13 16 14 12 9 7 11 13 13 10 9
53 58 52 50 49 47 41 42 36 33 29 27 25 24 28 31 30 28 28 28 30 31 29 27 26 23 18 18 14 11 9 9 11 13 14 13 11 12 12 13 9 11 10
51 54 52 52 49 48 45 40 40 36 33 29 25 25 26 28 34 34 30 27 25 24 24 23 24 19 17 17 19 18 4 6 13 14 12 12 12 6 15 22 17 18 15
46 51 52 51 53 52 47 47 42 40 36 31 27 25 26 26 26 27 25 24 22 22 21 21 20 17 20 18 6 7 10 11 11 11 11 12 11 27 33 37 37 34 28
40 47 51 52 53 55 54 55 50 45 38 34 31 28 27 26 25 24 23 20 19 17 21 18 20 20 15 8 9 14 15 15 15 14 18 27 34 36 33 29 25 24 20
37 40 42 47 55 53 56 56 57 55 44 38 33 30 27 26 25 23 20 17 16 21 19 20 22 11 5 9 17 19 20 16 17 17 26 33 27 30 30 28 26 28 19
38 41 44 45 47 50 52 54 59 60 52 42 36 31 27 27 25 24 22 21 21 21 18 21 12 10 10 20 26 24 23 21 18 27 34 39 39 36 34 35 31 10 16
42 43 43 42 42 44 47 49 51 55 45 43 37 32 27 25 24 24 25 25 25 17 17 19 15 10 24 24 27 26 26 21 27 37 44 34 34 33 30 29 19 10 24
44 47 46 42 43 42 42 46 47 44 40 39 37 34 30 27 27 25 26 24 21 24 21 15 8 22 28 30 31 29 32 30 36 37 39 35 33 29 29 20 19 16 21
43 45 46 43 43 42 42 44 43 41 41 41 41 41 28 22 26 27 29 28 28 24 16 6 18 23 31 34 31 40 34 34 40 38 30 24 19 17 28 24 23 35 31
47 48 48 46 45 43 43 42 41 41 44 46 46 49 41 25 29 29 29 30 28 21 16 17 21 27 34 34 38 36 32 38 37 34 23 14 31 27 25 22 31 32 36
51 52 52 49 47 45 44 42 45 45 47 48 44 38 35 26 31 30 29 31 27 20 16 21 27 29 34 37 39 44 43 39 34 25 22 12 3 18 22 24 24 30 28
55 56 54 52 51 49 46 43 43 41 37 37 37 35 30 31 29 26 25 27 27 21 19 26 30 35 37 46 49 42 38 37 33 30 19 5 19 23 26 23 27 24 25
58 59 58 54 53 51 48 45 45 43 46 42 40 42 42 41 37 30 27 32 27 24 25 31 34 39 39 43 48 48 44 40 37 29 21 15 18 16 23 21 21 22 19
62 61 55 55 56 53 53 52 52 49 47 45 43 39 34 33 25 29 34 34 28 25 29 37 38 43 45 51 46 44 45 44 39 29 19 15 23 21 25 28 23 19 18
60 58 58 59 57 56 58 56 54 49 49 49 46 42 36 31 21 34 36 32 27 27 33 40 43 45 49 49 47 52 49 44 36 31 23 19 25 26 20 24 30 28 19
53 56 58 60 60 60 62 60 59 56 56 52 48 42 36 35 39 37 33 34 32 32 38 47 48 51 49 51 53 50 46 40 34 29 29 33 30 31 28 25 24 25 29
49 56 63 66 68 68 71 72 69 66 60 53 48 39 42 42 36 32 33 39 36 36 39 53 54 53 55 52 54 48 39 36 32 29 33 31 33 34 32 29 29 28 22
56 61 66 70 70 73 75 73 70 66 63 53 45 42 40 37 37 41 37 43 40 39 46 54 61 62 61 58 50 39 25 32 36 39 41 37 37 36 33 31 30 28 25
59 65 69 69 72 76 76 75 73 67 63 59 56 56 53 55 51 40 37 43 44 47 50 53 60 64 64 63 58 35 25 22 36 46 43 41 40 37 34 33 30 28 26
51 52 57 66 70 75 77 77 75 72 70 68 56 56 56 57 47 45 46 49 52 53 53 53 57 62 65 67 62 54 36 18 22 17 46 45 43 40 37 35 32 28 27
41 48 46 50 60 70 72 72 69 69 67 62 53 51 52 51 46 51 53 55 57 57 54 56 59 63 65 61 64 64 61 36 23 15 17 48 48 43 41 37 33 31 30
27 36 40 42 45 54 62 64 64 63 65 63 56 49 48 52 52 56 52 54 58 58 58 55 56 58 61 59 60 61 59 49 29 22 20 17 40 44 43 40 37 35 34
Wind_Direction_500mb
179 174 164 166 174 179 186 185 186 184 186 195 201 202 209 198 168 157 170 160 173 191 206 216 220 236 243 231 205 244 251 242 230 214 185 111 96 94 96 96 99 103 114
176 174 167 169 168 176 186 187 186 186 191 191 207 196 192 171 171 171 174 176 180 186 190 210 238 248 261 265 267 277 247 231 240 232 223 195 183 228 209 183 167 148 143
175 177 174 182 173 167 171 175 184 181 186 194 196 189 200 201 190 200 214 223 221 220 227 261 284 289 277 269 267 270 270 228 233 221 219 208 198 231 219 238 226 202 193
180 181 186 187 189 186 185 188 189 192 201 212 217 222 225 222 222 235 246 249 252 256 263 271 276 276 278 282 275 271 282 234 240 201 205 203 219 234 255 255 244 207 196
186 188 186 190 196 198 198 202 202 203 211 223 230 239 243 243 243 249 258 255 254 258 262 264 266 273 282 286 293 285 259 217 187 186 195 208 235 257 256 186 191 146 143
190 191 192 197 201 206 210 209 210 212 217 227 238 250 255 255 252 256 260 257 254 255 259 261 271 279 286 300 307 308 292 166 170 172 185 204 219 187 138 141 142 131 122
196 199 198 199 208 212 216 221 218 219 220 228 240 253 260 260 257 256 254 253 254 253 249 261 272 282 293 303 258 155 184 171 179 164 157 178 161 142 129 123 122 121 129
201 208 208 209 214 217 220 226 230 228 227 232 240 251 255 257 258 256 255 251 245 244 250 263 278 290 300 279 208 156 144 156 163 149 142 137 135 135 134 126 125 115 138
198 211 217 218 218 223 229 232 232 234 234 239 246 251 254 253 254 251 245 233 221 227 250 272 278 288 177 172 150 150 158 171 164 162 145 139 145 133 130 121 116 111 122
204 207 214 218 222 226 229 235 239 245 239 245 248 249 249 249 250 244 231 218 213 229 251 263 254 234 182 171 155 166 172 170 178 161 157 135 127 118 114 112 109 142 137
212 213 216 217 220 221 228 237 242 251 241 247 250 252 250 243 238 231 224 222 224 221 224 251 258 261 161 153 159 168 170 170 166 161 138 133 126 114 105 98 100 97 109
224 219 215 217 219 221 227 237 245 252 237 238 243 249 244 238 234 229 226 234 215 196 233 275 197 156 150 158 164 176 165 168 169 146 150 127 120 115 104 97 95 112 122
235 226 224 227 224 226 230 234 240 241 234 232 234 236 232 242 235 225 218 218 217 229 242 243 167 158 157 174 177 172 168 175 170 152 131 117 105 105 101 101 98 104 106
240 234 232 233 232 235 232 233 238 236 233 233 239 242 238 230 234 222 215 216 219 222 222 190 169 158 163 177 178 180 183 179 162 148 126 107 119 109 102 108 117 115 112
245 239 237 238 238 238 236 236 236 235 236 239 243 237 232 226 231 224 214 213 218 215 207 182 174 166 173 181 184 171 165 163 166 161 125 118 87 126 121 122 122 127 129
248 244 241 240 239 239 240 237 235 233 238 241 243 240 216 212 226 226 222 219 217 213 201 185 176 170 177 176 174 174 176 166 161 149 144 140 121 129 115 125 118 121 124
250 246 242 240 237 237 238 236 233 234 235 236 240 237 220 212 216 219 231 225 218 213 202 187 184 182 188 191 187 175 174 175 168 157 201 208 161 154 140 134 145 134 135
247 244 242 238 236 235 234 234 233 238 243 246 243 234 222 221 232 228 227 224 218 212 201 190 189 189 188 178 185 189 186 180 171 172 183 209 189 216 182 164 156 155 151
242 240 237 236 237 235 231 231 233 238 239 239 236 232 222 222 230 238 229 224 220 213 203 192 190 197 195 198 200 184 180 183 186 188 199 227 221 237 226 201 175 161 152
239 238 236 236 237 233 230 229 231 235 238 239 236 232 223 212 214 226 229 228 219 213 205 191 196 195 197 196 186 182 187 194 197 199 217 230 227 228 225 214 208 194 180
239 237 236 233 232 229 226 225 226 233 236 240 240 234 222 213 217 220 233 231 223 216 209 197 196 200 196 202 197 189 196 208 212 221 236 236 232 227 220 217 207 206 224
248 243 238 233 231 230 229 230 230 235 235 237 230 221 220 225 228 218 230 236 228 219 210 205 203 202 205 207 207 210 211 223 233 233 238 235 228 220 217 214 213 216 222
244 240 237 235 231 228 228 227 228 230 232 229 224 226 224 217 229 237 236 232 232 222 219 212 208 208 209 209 215 214 226 229 232 234 232 228 222 219 219 220 221 223 228
237 232 231 232 231 228 228 228 231 233 231 231 234 238 231 229 222 222 219 229 231 225 220 218 215 216 214 217 218 216 222 233 209 219 222 222 222 220 222 224 225 227 233
221 218 222 226 227 227 227 230 233 235 235 236 243 244 239 230 225 213 223 223 226 222 220 219 218 218 221 223 225 222 225 232 225 217 219 221 224 224 226 229 230 233 238
191 200 209 217 222 225 226 230 234 235 234 238 243 239 236 228 223 218 226 228 225 224 220 219 220 222 225 225 228 233 232 224 230 232 237 226 229 228 229 231 233 236 241
Wind_Speed_850mb
43 42 36 35 30 30 31 30 30 25 24 23 20 21 21 14 16 19 21 20 16 15 17 15 14 14 11 7 4 8 10 10 8 6 4 4 6 7 7 9 10 10 9
48 48 41 37 35 31 26 28 27 28 24 21 20 20 19 14 13 14 17 21 22 21 19 17 17 14 11 14 17 14 12 15 12 10 7 4 1 5 3 0 3 5 6
51 52 48 45 41 39 36 35 33 30 25 21 17 17 20 19 16 15 15 19 21 23 24 24 21 19 18 16 18 19 20 14 16 15 12 9 5 2 6 5 6 8 7
53 55 53 50 48 45 42 40 35 32 27 24 21 20 22 25 24 20 19 23 30 30 31 29 26 24 22 18 16 15 12 14 13 16 14 12 9 7 11 13 13 10 9
53 58 52 50 49 47 41 42 36 33 29 27 25 24 28 31 30 28 28 28 30 31 29 27 26 23 18 18 14 11 9 9 11 13 14 13 11 12 12 13 9 11 10
51 54 52 52 49 48 45 40 40 36 33 29 25 25 26 28 34 34 30 27 25 24 24 23 24 19 17 17 19 18 4 6 13 14 12 12 12 6 15 22 17 18 15
46 51 52 51 53 52 47 47 42 40 36 31 27 25 26 26 26 27 25 24 22 22 21 21 20 17 20 18 6 7 10 11 11 11 11 12 11 27 33 37 37 34 28
40 47 51 52 53 55 54 55 50 45 38 34 31 28 27 26 25 24 23 20 19 17 21 18 20 20 15 8 9 14 15 15 15 14 18 27 34 36 33 29 25 24 20
37 40 42 47 55 53 56 56 57 55 44 38 33 30 27 26 25 23 20 17 16 21 19 20 22 11 5 9 17 19 20 16 17 17 26 33 27 30 30 28 26 28 19
38 41 44 45 47 50 52 54 59 60 52 42 36 31 27 27 25 24 22 21 21 21 18 21 12 10 10 20 26 24 23 21 18 27 34 39 39 36 34 35 31 10 16
42 43 43 42 42 44 47 49 51 55 45 43 37 32 27 25 24 24 25 25 25 17 17 19 15 10 24 24 27 26 26 21 27 37 44 34 34 33 30 29 19 10 24
44 47 46 42 43 42 42 46 47 44 40 39 37 34 30 27 27 25 26 24 21 24 21 15 8 22 28 30 31 29 32 30 36 37 39 35 33 29 29 20 19 16 21
43 45 46 43 43 42 42 44 43 41 41 41 41 41 28 22 26 27 29 28 28 24 16 6 18 23 31 34 31 40 34 34 40 38 30 24 19 17 28 24 23 35 31
47 48 48 46 45 43 43 42 41 41 44 46 46 49 41 25 29 29 29 30 28 21 16 17 21 27 34 34 38 36 32 38 37 34 23 14 31 27 25 22 31 32 36
51 52 52 49 47 45 44 42 45 45 47 48 44 38 35 26 31 30 29 31 27 20 16 21 27 29 34 37 39 44 43 39 34 25 22 12 3 18 22 24 24 30 28
55 56 54 52 51 49 46 43 43 41 37 37 37 35 30 31 29 26 25 27 27 21 19 26 30 35 37 46 49 42 38 37 33 30 19 5 19 23 26 23 27 24 25
58 59 58 54 53 51 48 45 45 43 46 42 40 42 42 41 37 30 27 32 27 24 25 31 34 39 39 43 48 48 44 40 37 29 21 15 18 16 23 21 21 22 19
62 61 55 55 56 53 53 52 52 49 47 45 43 39 34 33 25 29 34 34 28 25 29 37 38 43 45 51 46 44 45 44 39 29 19 15 23 21 25 28 23 19 18
60 58 58 59 57 56 58 56 54 49 49 49 46 42 36 31 21 34 36 32 27 27 33 40 43 45 49 49 47 52 49 44 36 31 23 19 25 26 20 24 30 28 19
53 56 58 60 60 60 62 60 59 56 56 52 48 42 36 35 39 37 33 34 32 32 38 47 48 51 49 51 53 50 46 40 34 29 29 33 30 31 28 25 24 25 29
49 56 63 66 68 68 71 72 69 66 60 53 48 39 42 42 36 32 33 39 36 36 39 53 54 53 55 52 54 48 39 36 32 29 33 31 33 34 32 29 29 28 22
56 61 66 70 70 73 75 73 70 66 63 53 45 42 40 37 37 41 37 43 40 39 46 54 61 62 61 58 50 39 25 32 36 39 41 37 37 36 33 31 30 28 25
59 65 69 69 72 76 76 75 73 67 63 59 56 56 53 55 51 40 37 43 44 47 50 53 60 64 64 63 58 35 25 22 36 46 43 41 40 37 34 33 30 28 26
51 52 57 66 70 75 77 77 75 72 70 68 56 56 56 57 47 45 46 49 52 53 53 53 57 62 65 67 62 54 36 18 22 17 46 45 43 40 37 35 32 28 27
41 48 46 50 60 70 72 72 69 69 67 62 53 51 52 51 46 51 53 55 57 57 54 56 59 63 65 61 64 64 61 36 23 15 17 48 48 43 41 37 33 31 30
27 36 40 42 45 54 62 64 64 63 65 63 56 49 48 52 52 56 52 54 58 58 58 55 56 58 61 59 60 61 59 49 29 22 20 17 40 44 43 40 37 35 34
Wind_Direction_850mb
179 174 164 166 174 179 186 185 186 184 186 195 201 202 209 198 168 157 170 160 173 191 206 216 220 236 243 231 205 244 251 242 230 214 185 111 96 94 96 96 99 103 114
176 174 167 169 168 176 186 187 186 186 191 191 207 196 192 171 171 171 174 176 180 186 190 210 238 248 261 265 267 277 247 231 240 232 223 195 183 228 209 183 167 148 143
175 177 174 182 173 167 171 175 184 181 186 194 196 189 200 201 190 200 214 223 221 220 227 261 284 289 277 269 267 270 270 228 233 221 219 208 198 231 219 238 226 202 193
180 181 186 187 189 186 185 188 189 192 201 212 217 222 225 222 222 235 246 249 252 256 263 271 276 276 278 282 275 271 282 234 240 201 205 203 219 234 255 255 244 207 196
186 188 186 190 196 198 198 202 202 203 211 223 230 239 243 243 243 249 258 255 254 258 262 264 266 273 282 286 293 285 259 217 187 186 195 208 235 257 256 186 191 146 143
190 191 192 197 201 206 210 209 210 212 217 227 238 250 255 255 252 256 260 257 254 255 259 261 271 279 286 300 307 308 292 166 170 172 185 204 219 187 138 141 142 131 122
196 199 198 199 208 212 216 221 218 219 220 228 240 253 260 260 257 256 254 253 254 253 249 261 272 282 293 303 258 155 184 171 179 164 157 178 161 142 129 123 122 121 129
201 208 208 209 214 217 220 226 230 228 227 232 240 251 255 257 258 256 255 251 245 244 250 263 278 290 300 279 208 156 144 156 163 149 142 137 135 135 134 126 125 115 138
198 211 217 218 218 223 229 232 232 234 234 239 246 251 254 253 254 251 245 233 221 227 250 272 278 288 177 172 150 150 158 171 164 162 145 139 145 133 130 121 116 111 122
204 207 214 218 222 226 229 235 239 245 239 245 248 249 249 249 250 244 231 218 213 229 251 263 254 234 182 171 155 166 172 170 178 161 157 135 127 118 114 112 109 142 137
212 213 216 217 220 221 228 237 242 251 241 247 250 252 250 243 238 231 224 222 224 221 224 251 258 261 161 153 159 168 170 170 166 161 138 133 126 114 105 98 100 97 109
224 219 215 217 219 221 227 237 245 252 237 238 243 249 244 238 234 229 226 234 215 196 233 275 197 156 150 158 164 176 165 168 169 146 150 127 120 115 104 97 95 112 122
235 226 224 227 224 226 230 234 240 241 234 232 234 236 232 242 235 225 218 218 217 229 242 243 167 158 157 174 177 172 168 175 170 152 131 117 105 105 101 101 98 104 106
240 234 232 233 232 235 232 233 238 236 233 233 239 242 238 230 234 222 215 216 219 222 222 190 169 158 163 177 178 180 183 179 162 148 126 107 119 109 102 108 117 115 112
245 239 237 238 238 238 236 236 236 235 236 239 243 237 232 226 231 224 214 213 218 215 207 182 174 166 173 181 184 171 165 163 166 161 125 118 87 126 121 122 122 127 129
248 244 241 240 239 239 240 237 235 233 238 241 243 240 216 212 226 226 222 219 217 213 201 185 176 170 177 176 174 174 176 166 161 149 144 140 121 129 115 125 118 121 124
250 246 242 240 237 237 238 236 233 234 235 236 240 237 220 212 216 219 231 225 218 213 202 187 184 182 188 191 187 175 174 175 168 157 201 208 161 154 140 134 145 134 135
247 244 242 238 236 235 234 234 233 238 243 246 243 234 222 221 232 228 227 224 218 212 201 190 189 189 188 178 185 189 186 180 171 172 183 209 189 216 182 164 156 155 151
242 240 237 236 237 235 231 231 233 238 239 239 236 232 222 222 230 238 229 224 220 213 203 192 190 197 195 198 200 184 180 183 186 188 199 227 221 237 226 201 175 161 152
239 238 236 236 237 233 230 229 231 235 238 239 236 232 223 212 214 226 229 228 219 213 205 191 196 195 197 196 186 182 187 194 197 199 217 230 227 228 225 214 208 194 180
239 237 236 233 232 229 226 225 226 233 236 240 240 234 222 213 217 220 233 231 223 216 209 197 196 200 196 202 197 189 196 208 212 221 236 236 232 227 220 217 207 206 224
248 243 238 233 231 230 229 230 230 235 235 237 230 221 220 225 228 218 230 236 228 219 210 205 203 202 205 207 207 210 211 223 233 233 238 235 228 220 217 214 213 216 222
244 240 237 235 231 228 228 227 228 230 232 229 224 226 224 217 229 237 236 232 232 222 219 212 208 208 209 209 215 214 226 229 232 234 232 228 222 219 219 220 221 223 228
237 232 231 232 231 228 228 228 231 233 231 231 234 238 231 229 222 222 219 229 231 225 220 218 215 216 214 217 218 216 222 233 209 219 222 222 222 220 222 224 225 227 233
221 218 222 226 227 227 227 230 233 235 235 236 243 244 239 230 225 213 223 223 226 222 220 219 218 218 221 223 225 222 225 232 225 217 219 221 224 224 226 229 230 233 238
191 200 209 217 222 225 226 230 234 235 234 238 243 239 236 228 223 218 226 228 225 224 220 219 220 222 225 225 228 233 232 224 230 232 237 226 229 228 229 231 233 236 241